CYGFM08

Last updated on Thu Jul 03 2025 00:02:22 GMT+0000 (Coordinated Universal Time)

1 41888U 16078E 25183.21735158 .00009973 00000+0 22436-3 0 9999 2 41888 34.9479 17.1635 0009830 105.8125 254.3679 15.42438861474623
UTC large
Height (km)
Speed (km/s)
/
Latitude / Longitude
Inclination (degrees)
Orbital Period (minutes)
Azimuth
Elevation
Range (km)
Doppler Factor

Next 0 passes for location: London (51.5072 / 0.1276)

Sorry there are no passes over London.